Home   Weather   Fairfield Crest Park   Past weeks
Flag for USA

Past Weather in Fairfield Crest Park, Delaware, USA — Yesterday and Last 2 Weeks

Now
34 °F

Mostly cloudy.


Feels Like: 28 °F
Forecast: 41 / 31 °F
Wind: 7 mph from Northwest

Location: New Castle County Airport

Current Time: Dec 11, 2019 at 7:03:25 am

Latest Report: Dec 11, 2019 at 5:51 am


Visibility: 9 mi

Pressure: 30.24 "Hg

Humidity: 88%

Dew Point: 31 °F

Location of Fairfield Crest ParkLocation

Past Weather in Fairfield Crest Park — Graph

°F

Fairfield Crest Park Temperature Yesterday

Maximum temperature yesterday: 59 °F (at 10:51 am)
Minimum temperature yesterday: 41 °F (at 10:51 pm)
Average temperature yesterday: 55 °F

High & Low Weather Summary for the Past Weeks

 TemperatureHumidityPressure
High63 °F (Nov 26, 2:51 pm)97% (Dec 9, 9:51 am)30.55 "Hg (Dec 9, 9:51 am)
Low23 °F (Dec 8, 6:51 am)30% (Dec 3, 1:51 pm)29.46 "Hg (Dec 1, 6:51 pm)
Average42 °F71%29.95 "Hg
* Reported Nov 26 5:51 am — Dec 11 5:51 am, Fairfield Crest Park. Weather by CustomWeather, © 2019

Note: Actual official high and low records may vary slightly from our data, if they occured in-between our weather recording intervals... More about our weather records

Fairfield Crest Park Weather History for the Previous 24 Hours

Scroll right to see more
 ConditionsComfort  
Time TempWeatherWind HumidityBarometerVisibility
5:51 am
Wed, Dec 11
34 °FMostly cloudy.7 mph88%30.24 "Hg9 mi
4:51 am33 °FLight snow. Fog.7 mph92%30.22 "Hg4 mi
4:38 am33 °FLight snow. Fog.8 mph92%30.22 "Hg2 mi
4:14 am33 °FLight snow. Fog.7 mph92%30.21 "Hg1 mi
3:51 am34 °FLight snow. Fog.7 mph88%30.22 "Hg5 mi
2:51 am35 °FMostly cloudy.12 mph85%30.22 "Hg9 mi
2:24 am34 °FLight snow. Fog.7 mph92%30.21 "Hg4 mi
2:15 am34 °FLight snow. Fog.10 mph88%30.21 "Hg4 mi
2:00 am35 °FLight snow. Fog.12 mph85%30.20 "Hg5 mi
1:19 am36 °FLight rain. Fog.9 mph89%30.19 "Hg6 mi
12:51 am37 °FLight rain. Overcast.13 mph86%30.16 "Hg8 mi
12:23 am38 °FLight rain. Mostly cloudy.15 mph86%30.14 "Hg7 mi
10:51 pm
Tue, Dec 10
41 °FLight rain. Mostly cloudy.16 mph82%30.12 "Hg10 mi
9:51 pm42 °FMostly cloudy.15 mph79%30.11 "Hg10 mi
8:51 pm44 °FLight rain. Overcast.20 mph82%30.08 "Hg10 mi
7:51 pm48 °FLight rain. Overcast.16 mph74%30.06 "Hg10 mi
6:51 pm52 °FLight rain. Overcast.12 mph83%29.98 "Hg10 mi
5:51 pm54 °FLight rain. Mostly cloudy.8 mph90%29.95 "Hg9 mi
4:51 pm55 °FMostly cloudy.7 mph90%29.91 "Hg10 mi
3:51 pm56 °FFog.7 mph93%29.90 "Hg6 mi
2:51 pm57 °FMostly cloudy.7 mph90%29.85 "Hg7 mi
2:32 pm57 °FMostly cloudy.7 mph90%29.85 "Hg7 mi
2:22 pm57 °FFog.8 mph90%29.85 "Hg6 mi
2:09 pm57 °FLight rain. Fog.7 mph90%29.85 "Hg3 mi
1:51 pm57 °FLight rain. Fog.7 mph90%29.85 "Hg4 mi
12:59 pm57 °FLight rain. More clouds than sun.8 mph90%29.84 "Hg6 mi
12:29 pm57 °FLight rain. Fog.9 mph93%29.85 "Hg4 mi
11:51 am58 °FLight rain. Overcast.9 mph87%29.84 "Hg8 mi
11:13 am58 °FLight rain. Overcast.9 mph87%29.84 "Hg9 mi
10:51 am59 °FLight rain. Overcast.13 mph84%29.85 "Hg10 mi
9:51 am58 °FOvercast.10 mph84%29.85 "Hg10 mi
9:39 am58 °FMostly cloudy.12 mph84%29.85 "Hg10 mi
8:51 am58 °FOvercast.13 mph81%29.85 "Hg10 mi
7:51 am57 °FPartly sunny.16 mph83%29.82 "Hg10 mi
Weather by CustomWeather, © 2019

See weather overview

Advertising